| time (UTC) | temp F | wind direction | speed MPH | gust MPH | rain 1hr in | rain 24hr in | rain mn in | humidity % | barometer mb |
| 20260509142524 | 66 | 148 | 1.0 | 6.0 | 0.00 | 0.00 | 0.00 | 24 | 1021.0 |
| 20260509142027 | 66 | 145 | 2.0 | 6.0 | 0.00 | 0.00 | 0.00 | 24 | 1020.9 |
| 20260509141540 | 67 | 65 | 1.0 | 5.0 | 0.00 | 0.00 | 0.00 | 24 | 1020.8 |
| 20260509141024 | 66 | 284 | 1.0 | 3.0 | 0.00 | 0.00 | 0.00 | 25 | 1020.7 |
| 20260509140524 | 65 | 0 | 0.0 | 1.0 | 0.00 | 0.00 | 0.00 | 26 | 1020.7 |
| 20260509140045 | 64 | 0 | 0.0 | 1.0 | 0.00 | 0.00 | 0.00 | 27 | 1020.7 |
| 20260509135527 | 62 | 0 | 0.0 | 1.0 | 0.00 | 0.00 | 0.00 | 28 | 1020.7 |
| 20260509135025 | 61 | 0 | 0.0 | 2.0 | 0.00 | 0.00 | 0.00 | 32 | 1020.7 |
| 20260509134539 | 59 | 287 | 0.0 | 3.0 | 0.00 | 0.00 | 0.00 | 36 | 1020.7 |
| 20260509134023 | 58 | 287 | 1.0 | 3.0 | 0.00 | 0.00 | 0.00 | 38 | 1020.7 |
| 20260509133524 | 56 | 287 | 1.0 | 3.0 | 0.00 | 0.00 | 0.00 | 40 | 1020.7 |
| 20260509133039 | 54 | 288 | 1.0 | 4.0 | 0.00 | 0.00 | 0.00 | 42 | 1020.7 |
| 20260509132526 | 53 | 281 | 1.0 | 4.0 | 0.00 | 0.00 | 0.00 | 43 | 1020.6 |
| 20260509132025 | 51 | 248 | 2.0 | 4.0 | 0.00 | 0.00 | 0.00 | 43 | 1020.6 |
| 20260509131539 | 50 | 280 | 2.0 | 6.0 | 0.00 | 0.00 | 0.00 | 44 | 1020.5 |
| 20260509131024 | 49 | 279 | 3.0 | 6.0 | 0.00 | 0.00 | 0.00 | 45 | 1020.6 |
| 20260509130524 | 48 | 274 | 3.0 | 6.0 | 0.00 | 0.00 | 0.00 | 47 | 1020.6 |
| 20260509130038 | 46 | 273 | 3.0 | 6.0 | 0.00 | 0.00 | 0.00 | 48 | 1020.5 |
| 20260509125530 | 45 | 274 | 3.0 | 6.0 | 0.00 | 0.00 | 0.00 | 50 | 1020.5 |
| 20260509125024 | 44 | 275 | 3.0 | 5.0 | 0.00 | 0.00 | 0.00 | 51 | 1020.5 |
| 20260509124536 | 43 | 306 | 2.0 | 5.0 | 0.00 | 0.00 | 0.00 | 52 | 1020.4 |
| 20260509124024 | 43 | 306 | 2.0 | 5.0 | 0.00 | 0.00 | 0.00 | 53 | 1020.4 |
| 20260509123525 | 43 | 306 | 3.0 | 5.0 | 0.00 | 0.00 | 0.00 | 53 | 1020.2 |
| 20260509123042 | 43 | 304 | 3.0 | 5.0 | 0.00 | 0.00 | 0.00 | 53 | 1020.2 |
| 20260509122524 | 42 | 304 | 2.0 | 5.0 | 0.00 | 0.00 | 0.00 | 52 | 1020.2 |
| 20260509122025 | 42 | 304 | 3.0 | 7.0 | 0.00 | 0.00 | 0.00 | 53 | 1020.0 |
| 20260509121540 | 42 | 304 | 4.0 | 7.0 | 0.00 | 0.00 | 0.00 | 53 | 1019.9 |
| 20260509121024 | 42 | 302 | 3.0 | 5.0 | 0.00 | 0.00 | 0.00 | 53 | 1020.0 |
| 20260509120526 | 42 | 301 | 3.0 | 4.0 | 0.00 | 0.00 | 0.00 | 53 | 1019.9 |
| 20260509120041 | 42 | 301 | 2.0 | 5.0 | 0.00 | 0.00 | 0.00 | 53 | 1019.9 |
| 20260509115523 | 42 | 301 | 2.0 | 5.0 | 0.00 | 0.00 | 0.00 | 53 | 1019.8 |
| 20260509115024 | 42 | 300 | 3.0 | 4.0 | 0.00 | 0.00 | 0.00 | 53 | 1019.7 |
| 20260509114538 | 42 | 300 | 1.0 | 4.0 | 0.00 | 0.00 | 0.00 | 53 | 1019.7 |
| 20260509114025 | 42 | 300 | 2.0 | 4.0 | 0.00 | 0.00 | 0.00 | 52 | 1019.7 |
| 20260509113525 | 43 | 300 | 3.0 | 4.0 | 0.00 | 0.00 | 0.00 | 52 | 1019.7 |
| 20260509113037 | 43 | 300 | 1.0 | 4.0 | 0.00 | 0.00 | 0.00 | 51 | 1019.7 |
| 20260509112524 | 43 | 300 | 2.0 | 4.0 | 0.00 | 0.00 | 0.00 | 51 | 1019.6 |
| 20260509112025 | 43 | 0 | 0.0 | 4.0 | 0.00 | 0.00 | 0.00 | 50 | 1019.5 |
| 20260509111535 | 44 | 300 | 1.0 | 5.0 | 0.00 | 0.00 | 0.00 | 50 | 1019.6 |
| 20260509111025 | 44 | 300 | 3.0 | 5.0 | 0.00 | 0.00 | 0.00 | 50 | 1019.5 |
| 20260509110524 | 43 | 300 | 2.0 | 4.0 | 0.00 | 0.00 | 0.00 | 50 | 1019.5 |
| 20260509110035 | 44 | 300 | 2.0 | 4.0 | 0.00 | 0.00 | 0.00 | 50 | 1019.6 |
| 20260509105523 | 44 | 300 | 2.0 | 4.0 | 0.00 | 0.00 | 0.00 | 50 | 1019.5 |
| 20260509105025 | 43 | 300 | 3.0 | 4.0 | 0.00 | 0.00 | 0.00 | 50 | 1019.5 |
| 20260509104540 | 43 | 300 | 2.0 | 5.0 | 0.00 | 0.00 | 0.00 | 50 | 1019.5 |
| 20260509104023 | 44 | 300 | 3.0 | 5.0 | 0.00 | 0.00 | 0.00 | 50 | 1019.4 |
| 20260509103523 | 44 | 300 | 2.0 | 5.0 | 0.00 | 0.00 | 0.00 | 50 | 1019.5 |
| 20260509103047 | 44 | 300 | 3.0 | 4.0 | 0.00 | 0.00 | 0.00 | 51 | 1019.5 |
| 20260509102524 | 44 | 300 | 2.0 | 4.0 | 0.00 | 0.00 | 0.00 | 50 | 1019.5 |
| 20260509102025 | 44 | 300 | 3.0 | 5.0 | 0.00 | 0.00 | 0.00 | 50 | 1019.5 |
| 20260509101541 | 44 | 300 | 3.0 | 5.0 | 0.00 | 0.00 | 0.00 | 50 | 1019.5 |
| 20260509101026 | 44 | 298 | 3.0 | 5.0 | 0.00 | 0.00 | 0.00 | 50 | 1019.5 |
| 20260509100524 | 44 | 298 | 2.0 | 4.0 | 0.00 | 0.00 | 0.00 | 50 | 1019.5 |
| 20260509100045 | 44 | 298 | 3.0 | 4.0 | 0.00 | 0.00 | 0.00 | 50 | 1019.6 |
| 20260509095526 | 44 | 298 | 2.0 | 4.0 | 0.00 | 0.00 | 0.00 | 50 | 1019.5 |
| 20260509095022 | 44 | 298 | 2.0 | 4.0 | 0.00 | 0.00 | 0.00 | 50 | 1019.5 |
| 20260509094537 | 44 | 298 | 2.0 | 4.0 | 0.00 | 0.00 | 0.00 | 50 | 1019.6 |
| 20260509094024 | 44 | 298 | 3.0 | 5.0 | 0.00 | 0.00 | 0.00 | 50 | 1019.6 |
| 20260509093525 | 44 | 298 | 3.0 | 5.0 | 0.00 | 0.00 | 0.00 | 50 | 1019.5 |
| 20260509093041 | 44 | 298 | 3.0 | 5.0 | 0.00 | 0.00 | 0.00 | 51 | 1019.5 |
| 20260509092524 | 44 | 298 | 3.0 | 5.0 | 0.00 | 0.00 | 0.00 | 50 | 1019.5 |
| 20260509092028 | 44 | 298 | 2.0 | 4.0 | 0.00 | 0.00 | 0.00 | 50 | 1019.5 |
| 20260509091538 | 44 | 298 | 2.0 | 4.0 | 0.00 | 0.00 | 0.00 | 50 | 1019.5 |
| 20260509091025 | 45 | 298 | 2.0 | 4.0 | 0.00 | 0.00 | 0.00 | 49 | 1019.5 |
| 20260509090526 | 45 | 298 | 2.0 | 3.0 | 0.00 | 0.00 | 0.00 | 49 | 1019.4 |
| 20260509090047 | 45 | 298 | 1.0 | 3.0 | 0.00 | 0.00 | 0.00 | 48 | 1019.3 |
| 20260509085524 | 45 | 298 | 1.0 | 4.0 | 0.00 | 0.00 | 0.00 | 47 | 1019.3 |
| 20260509085025 | 45 | 298 | 2.0 | 4.0 | 0.00 | 0.00 | 0.00 | 48 | 1019.2 |
| 20260509084536 | 46 | 298 | 2.0 | 3.0 | 0.00 | 0.00 | 0.00 | 47 | 1019.2 |
| 20260509084028 | 46 | 298 | 2.0 | 3.0 | 0.00 | 0.00 | 0.00 | 47 | 1019.2 |
| 20260509083524 | 46 | 0 | 1.0 | 3.0 | 0.00 | 0.00 | 0.00 | 47 | 1019.3 |
| 20260509083043 | 46 | 298 | 1.0 | 3.0 | 0.00 | 0.00 | 0.00 | 46 | 1019.2 |
| 20260509082524 | 46 | 298 | 1.0 | 3.0 | 0.00 | 0.00 | 0.00 | 46 | 1019.2 |
| 20260509082024 | 46 | 298 | 2.0 | 3.0 | 0.00 | 0.00 | 0.00 | 46 | 1019.1 |
| 20260509081541 | 46 | 0 | 0.0 | 2.0 | 0.00 | 0.00 | 0.00 | 47 | 1019.1 |
| 20260509081024 | 47 | 0 | 0.0 | 2.0 | 0.00 | 0.00 | 0.00 | 45 | 1019.3 |
| 20260509080524 | 47 | 298 | 1.0 | 3.0 | 0.00 | 0.00 | 0.00 | 44 | 1019.2 |
| 20260509080041 | 48 | 298 | 1.0 | 3.0 | 0.00 | 0.00 | 0.00 | 44 | 1019.1 |
| 20260509075522 | 48 | 298 | 1.0 | 3.0 | 0.00 | 0.00 | 0.00 | 43 | 1019.2 |
| 20260509075025 | 49 | 298 | 1.0 | 4.0 | 0.00 | 0.00 | 0.00 | 42 | 1019.2 |
| 20260509074536 | 49 | 298 | 2.0 | 5.0 | 0.00 | 0.00 | 0.00 | 41 | 1019.1 |
| 20260509074029 | 49 | 298 | 3.0 | 5.0 | 0.00 | 0.00 | 0.00 | 41 | 1019.2 |
| 20260509073526 | 49 | 298 | 3.0 | 5.0 | 0.00 | 0.00 | 0.00 | 40 | 1019.2 |
| 20260509073037 | 49 | 300 | 3.0 | 7.0 | 0.00 | 0.00 | 0.00 | 40 | 1019.2 |
| 20260509072526 | 50 | 299 | 3.0 | 7.0 | 0.00 | 0.00 | 0.00 | 40 | 1019.1 |
| 20260509072024 | 50 | 300 | 4.0 | 7.0 | 0.00 | 0.00 | 0.00 | 40 | 1019.2 |
| 20260509071535 | 50 | 300 | 2.0 | 5.0 | 0.00 | 0.00 | 0.00 | 40 | 1019.2 |
| 20260509071025 | 50 | 295 | 3.0 | 5.0 | 0.00 | 0.00 | 0.00 | 40 | 1019.2 |
| 20260509070524 | 49 | 299 | 3.0 | 5.0 | 0.00 | 0.00 | 0.00 | 40 | 1019.2 |
| 20260509070043 | 49 | 300 | 3.0 | 5.0 | 0.00 | 0.00 | 0.00 | 40 | 1019.3 |
| 20260509065525 | 49 | 298 | 2.0 | 4.0 | 0.00 | 0.00 | 0.00 | 40 | 1019.3 |
| 20260509065024 | 50 | 298 | 2.0 | 5.0 | 0.00 | 0.00 | 0.00 | 40 | 1019.4 |
| 20260509064543 | 49 | 298 | 3.0 | 7.0 | 0.00 | 0.00 | 0.00 | 40 | 1019.4 |
| 20260509064023 | 49 | 300 | 4.0 | 7.0 | 0.00 | 0.00 | 0.00 | 40 | 1019.4 |
| 20260509063527 | 49 | 298 | 2.0 | 4.0 | 0.00 | 0.00 | 0.00 | 40 | 1019.4 |
| 20260509063038 | 49 | 297 | 2.0 | 4.0 | 0.00 | 0.00 | 0.00 | 40 | 1019.5 |
| 20260509062524 | 49 | 297 | 1.0 | 4.0 | 0.00 | 0.00 | 0.00 | 40 | 1019.4 |
| 20260509062024 | 50 | 0 | 0.0 | 2.0 | 0.00 | 0.00 | 0.00 | 39 | 1019.5 |
| 20260509061537 | 51 | 0 | 0.0 | 4.0 | 0.00 | 0.00 | 0.00 | 38 | 1019.6 |
| 20260509061029 | 51 | 297 | 1.0 | 4.0 | 0.00 | 0.00 | 0.00 | 37 | 1019.5 |
| 20260509060525 | 51 | 297 | 2.0 | 5.0 | 0.00 | 0.00 | 0.00 | 36 | 1019.5 |
| 20260509060039 | 52 | 298 | 2.0 | 5.0 | 0.00 | 0.00 | 0.00 | 36 | 1019.5 |
| 20260509055529 | 52 | 298 | 2.0 | 4.0 | 0.00 | 0.00 | 0.00 | 36 | 1019.5 |
| 20260509055027 | 52 | 298 | 2.0 | 4.0 | 0.00 | 0.00 | 0.00 | 35 | 1019.5 |
| 20260509054535 | 52 | 298 | 1.0 | 5.0 | 0.00 | 0.00 | 0.00 | 35 | 1019.5 |
| 20260509054025 | 53 | 298 | 3.0 | 7.0 | 0.00 | 0.00 | 0.00 | 35 | 1019.5 |
| 20260509053525 | 53 | 302 | 2.0 | 7.0 | 0.00 | 0.00 | 0.00 | 34 | 1019.5 |
| 20260509053041 | 53 | 298 | 2.0 | 5.0 | 0.00 | 0.00 | 0.00 | 34 | 1019.5 |
| 20260509052524 | 53 | 299 | 2.0 | 4.0 | 0.00 | 0.00 | 0.00 | 34 | 1019.5 |
| 20260509052024 | 54 | 0 | 1.0 | 3.0 | 0.00 | 0.00 | 0.00 | 33 | 1019.6 |
| 20260509051539 | 54 | 296 | 2.0 | 4.0 | 0.00 | 0.00 | 0.00 | 32 | 1019.7 |
| 20260509051023 | 55 | 296 | 2.0 | 4.0 | 0.00 | 0.00 | 0.00 | 31 | 1019.8 |
| 20260509050524 | 55 | 296 | 2.0 | 4.0 | 0.00 | 0.00 | 0.00 | 31 | 1019.7 |
| 20260509050050 | 56 | 296 | 2.0 | 4.0 | 0.00 | 0.00 | 0.00 | 30 | 1019.8 |
| 20260509045524 | 55 | 295 | 1.0 | 4.0 | 0.00 | 0.00 | 0.00 | 30 | 1019.8 |
| 20260509045025 | 55 | 0 | 0.0 | 4.0 | 0.00 | 0.00 | 0.00 | 31 | 1019.7 |
| 20260509044535 | 54 | 294 | 2.0 | 4.0 | 0.00 | 0.00 | 0.00 | 31 | 1019.8 |
| 20260509044026 | 54 | 298 | 1.0 | 4.0 | 0.00 | 0.00 | 0.00 | 32 | 1019.8 |
| 20260509043527 | 54 | 298 | 2.0 | 5.0 | 0.00 | 0.00 | 0.00 | 32 | 1019.9 |
| 20260509043043 | 54 | 297 | 2.0 | 5.0 | 0.00 | 0.00 | 0.00 | 32 | 1019.8 |
| 20260509042525 | 54 | 296 | 3.0 | 5.0 | 0.00 | 0.00 | 0.00 | 32 | 1019.8 |
| 20260509042029 | 53 | 294 | 2.0 | 5.0 | 0.00 | 0.00 | 0.00 | 33 | 1019.8 |
| 20260509041541 | 53 | 293 | 3.0 | 6.0 | 0.00 | 0.00 | 0.00 | 33 | 1019.8 |
| 20260509041025 | 54 | 292 | 3.0 | 6.0 | 0.00 | 0.00 | 0.00 | 33 | 1019.8 |
| 20260509040524 | 54 | 227 | 2.0 | 3.0 | 0.00 | 0.00 | 0.00 | 32 | 1019.8 |
| 20260509040040 | 55 | 0 | 1.0 | 3.0 | 0.00 | 0.00 | 0.00 | 32 | 1019.8 |
| 20260509035527 | 55 | 227 | 0.0 | 4.0 | 0.00 | 0.00 | 0.00 | 32 | 1019.8 |
| 20260509035024 | 55 | 0 | 1.0 | 4.0 | 0.00 | 0.00 | 0.00 | 31 | 1019.7 |
| 20260509034539 | 56 | 221 | 2.0 | 4.0 | 0.00 | 0.00 | 0.00 | 30 | 1019.7 |
| 20260509034029 | 56 | 196 | 1.0 | 4.0 | 0.00 | 0.00 | 0.00 | 29 | 1019.7 |
| 20260509033525 | 57 | 196 | 2.0 | 4.0 | 0.00 | 0.00 | 0.00 | 28 | 1019.6 |
| 20260509033037 | 58 | 195 | 1.0 | 4.0 | 0.00 | 0.00 | 0.00 | 28 | 1019.5 |
| 20260509032523 | 58 | 194 | 2.0 | 4.0 | 0.00 | 0.00 | 0.00 | 27 | 1019.5 |
| 20260509032024 | 59 | 188 | 1.0 | 3.0 | 0.00 | 0.00 | 0.00 | 26 | 1019.4 |
| 20260509031613 | 60 | 183 | 1.0 | 3.0 | 0.00 | 0.00 | 0.00 | 25 | 1019.4 |
| 20260509031024 | 61 | 181 | 1.0 | 2.0 | 0.00 | 0.00 | 0.00 | 23 | 1019.2 |
| 20260509030526 | 63 | 173 | 1.0 | 2.0 | 0.00 | 0.00 | 0.00 | 22 | 1019.1 |
| 20260509030040 | 65 | 0 | 0.0 | 2.0 | 0.00 | 0.00 | 0.00 | 22 | 1019.1 |
| 20260509025525 | 66 | 0 | 0.0 | 4.0 | 0.00 | 0.00 | 0.00 | 20 | 1019.0 |
| 20260509025022 | 66 | 170 | 0.0 | 6.0 | 0.00 | 0.00 | 0.00 | 19 | 1018.9 |
| 20260509024540 | 67 | 170 | 2.0 | 6.0 | 0.00 | 0.00 | 0.00 | 18 | 1018.9 |
| 20260509024024 | 67 | 182 | 1.0 | 6.0 | 0.00 | 0.00 | 0.00 | 18 | 1018.7 |
| 20260509023523 | 68 | 182 | 1.0 | 9.0 | 0.00 | 0.00 | 0.00 | 18 | 1018.7 |
| 20260509023038 | 68 | 173 | 3.0 | 12.0 | 0.00 | 0.00 | 0.00 | 17 | 1018.6 |
| 20260509022523 | 68 | 170 | 3.0 | 12.0 | 0.00 | 0.00 | 0.00 | 17 | 1018.6 |
| 20260509022024 | 69 | 161 | 6.0 | 14.0 | 0.00 | 0.00 | 0.00 | 16 | 1018.4 |
| 20260509021541 | 69 | 188 | 5.0 | 14.0 | 0.00 | 0.00 | 0.00 | 16 | 1018.3 |
| 20260509021024 | 69 | 159 | 8.0 | 16.0 | 0.00 | 0.00 | 0.00 | 16 | 1018.2 |
| 20260509020524 | 70 | 124 | 8.0 | 16.0 | 0.00 | 0.00 | 0.00 | 16 | 1018.1 |
| 20260509020035 | 70 | 146 | 9.0 | 15.0 | 0.00 | 0.00 | 0.00 | 15 | 1017.9 |
| 20260509015524 | 70 | 155 | 5.0 | 18.0 | 0.00 | 0.00 | 0.00 | 15 | 1017.9 |
| 20260509015024 | 71 | 119 | 9.0 | 18.0 | 0.00 | 0.00 | 0.00 | 14 | 1017.9 |
| 20260509014536 | 72 | 146 | 6.0 | 15.0 | 0.00 | 0.00 | 0.00 | 15 | 1017.8 |
| 20260509014022 | 73 | 156 | 4.0 | 14.0 | 0.00 | 0.00 | 0.00 | 16 | 1017.7 |
| 20260509013524 | 74 | 161 | 7.0 | 15.0 | 0.00 | 0.00 | 0.00 | 15 | 1017.5 |
| 20260509013040 | 74 | 166 | 7.0 | 15.0 | 0.00 | 0.00 | 0.00 | 15 | 1017.5 |
| 20260509012523 | 75 | 173 | 7.0 | 13.0 | 0.00 | 0.00 | 0.00 | 15 | 1017.3 |
| 20260509012025 | 77 | 175 | 4.0 | 11.0 | 0.00 | 0.00 | 0.00 | 14 | 1017.4 |
| 20260509011543 | 77 | 0 | 1.0 | 4.0 | 0.00 | 0.00 | 0.00 | 14 | 1017.4 |
| 20260509011027 | 76 | 188 | 1.0 | 4.0 | 0.00 | 0.00 | 0.00 | 15 | 1017.4 |
| 20260509010524 | 76 | 0 | 0.0 | 7.0 | 0.00 | 0.00 | 0.00 | 15 | 1017.4 |
| 20260509010042 | 75 | 0 | 1.0 | 8.0 | 0.00 | 0.00 | 0.00 | 15 | 1017.4 |
| 20260509005524 | 74 | 178 | 4.0 | 8.0 | 0.00 | 0.00 | 0.00 | 16 | 1017.4 |
| 20260509005024 | 74 | 169 | 4.0 | 8.0 | 0.00 | 0.00 | 0.00 | 16 | 1017.4 |
| 20260509004547 | 74 | 178 | 1.0 | 12.0 | 0.00 | 0.00 | 0.00 | 16 | 1017.5 |
| 20260509004024 | 74 | 155 | 3.0 | 15.0 | 0.00 | 0.00 | 0.00 | 15 | 1017.5 |
| 20260509003524 | 75 | 115 | 6.0 | 15.0 | 0.00 | 0.00 | 0.00 | 15 | 1017.6 |
| 20260509003037 | 75 | 109 | 10.0 | 15.0 | 0.00 | 0.00 | 0.00 | 15 | 1017.5 |
| 20260509002521 | 76 | 172 | 2.0 | 6.0 | 0.00 | 0.00 | 0.00 | 15 | 1017.5 |
| 20260509002026 | 76 | 117 | 1.0 | 9.0 | 0.00 | 0.00 | 0.00 | 15 | 1017.5 |
| 20260509001535 | 75 | 167 | 3.0 | 12.0 | 0.00 | 0.00 | 0.00 | 16 | 1017.6 |
| 20260509001024 | 75 | 144 | 6.0 | 12.0 | 0.00 | 0.00 | 0.00 | 15 | 1017.5 |
| 20260509000524 | 76 | 121 | 3.0 | 8.0 | 0.00 | 0.00 | 0.00 | 15 | 1017.7 |
| 20260509000050 | 75 | 49 | 2.0 | 5.0 | 0.00 | 0.00 | 0.00 | 16 | 1017.7 |
| 20260508235522 | 75 | 342 | 1.0 | 3.0 | 0.00 | 0.00 | 0.00 | 16 | 1017.7 |
| 20260508235025 | 75 | 283 | 1.0 | 3.0 | 0.00 | 0.00 | 0.00 | 16 | 1017.6 |
| 20260508234538 | 76 | 195 | 0.0 | 3.0 | 0.00 | 0.00 | 0.00 | 16 | 1017.6 |
| 20260508234024 | 76 | 0 | 0.0 | 6.0 | 0.00 | 0.00 | 0.00 | 16 | 1017.6 |
| 20260508233522 | 76 | 193 | 3.0 | 7.0 | 0.00 | 0.00 | 0.00 | 16 | 1017.6 |
| 20260508233041 | 77 | 269 | 2.0 | 11.0 | 0.00 | 0.00 | 0.00 | 16 | 1017.7 |
| 20260508232524 | 77 | 189 | 4.0 | 15.0 | 0.00 | 0.00 | 0.00 | 15 | 1017.7 |
| 20260508232023 | 78 | 136 | 3.0 | 15.0 | 0.00 | 0.00 | 0.00 | 15 | 1017.6 |
| 20260508231538 | 78 | 166 | 7.0 | 14.0 | 0.00 | 0.00 | 0.00 | 15 | 1017.6 |
| 20260508231024 | 78 | 123 | 2.0 | 18.0 | 0.00 | 0.00 | 0.00 | 15 | 1017.6 |
| 20260508230526 | 78 | 84 | 9.0 | 18.0 | 0.00 | 0.00 | 0.00 | 15 | 1017.7 |
| 20260508230036 | 78 | 133 | 6.0 | 15.0 | 0.00 | 0.00 | 0.00 | 16 | 1017.5 |
| 20260508225524 | 78 | 125 | 9.0 | 13.0 | 0.00 | 0.00 | 0.00 | 15 | 1017.6 |
| 20260508225026 | 79 | 113 | 3.0 | 11.0 | 0.00 | 0.00 | 0.00 | 15 | 1017.6 |
| 20260508224537 | 78 | 83 | 4.0 | 11.0 | 0.00 | 0.00 | 0.00 | 15 | 1017.6 |
| 20260508224024 | 78 | 71 | 3.0 | 13.0 | 0.00 | 0.00 | 0.00 | 15 | 1017.6 |
| 20260508223523 | 77 | 111 | 5.0 | 14.0 | 0.00 | 0.00 | 0.00 | 15 | 1017.7 |
| 20260508223037 | 77 | 158 | 7.0 | 14.0 | 0.00 | 0.00 | 0.00 | 16 | 1017.7 |
| 20260508222524 | 78 | 171 | 6.0 | 13.0 | 0.00 | 0.00 | 0.00 | 15 | 1017.7 |
| 20260508222024 | 78 | 157 | 6.0 | 13.0 | 0.00 | 0.00 | 0.00 | 15 | 1017.7 |
| 20260508221540 | 79 | 209 | 4.0 | 13.0 | 0.00 | 0.00 | 0.00 | 14 | 1017.7 |
| 20260508221024 | 78 | 196 | 3.0 | 7.0 | 0.00 | 0.00 | 0.00 | 14 | 1017.7 |
| 20260508220524 | 78 | 269 | 2.0 | 13.0 | 0.00 | 0.00 | 0.00 | 14 | 1017.7 |
| 20260508220045 | 78 | 179 | 4.0 | 13.0 | 0.00 | 0.00 | 0.00 | 14 | 1017.8 |
| 20260508215524 | 79 | 146 | 3.0 | 10.0 | 0.00 | 0.00 | 0.00 | 14 | 1017.9 |
| 20260508215024 | 79 | 194 | 2.0 | 10.0 | 0.00 | 0.00 | 0.00 | 14 | 1017.9 |
| 20260508214538 | 80 | 182 | 5.0 | 10.0 | 0.00 | 0.00 | 0.00 | 14 | 1017.9 |
| 20260508214024 | 80 | 273 | 0.0 | 7.0 | 0.00 | 0.00 | 0.00 | 14 | 1018.0 |
| 20260508213523 | 79 | 277 | 2.0 | 7.0 | 0.00 | 0.00 | 0.00 | 14 | 1018.1 |
| 20260508213045 | 79 | 234 | 2.0 | 12.0 | 0.00 | 0.00 | 0.00 | 14 | 1018.2 |
| 20260508212525 | 78 | 242 | 3.0 | 15.0 | 0.00 | 0.00 | 0.00 | 14 | 1018.3 |
| 20260508212026 | 78 | 213 | 5.0 | 15.0 | 0.00 | 0.00 | 0.00 | 14 | 1018.3 |
| 20260508211538 | 78 | 281 | 1.0 | 7.0 | 0.00 | 0.00 | 0.00 | 14 | 1018.3 |
| 20260508211024 | 77 | 188 | 4.0 | 13.0 | 0.00 | 0.00 | 0.00 | 15 | 1018.4 |
| 20260508210523 | 77 | 161 | 6.0 | 13.0 | 0.00 | 0.00 | 0.00 | 15 | 1018.4 |
| 20260508210043 | 77 | 171 | 5.0 | 13.0 | 0.00 | 0.00 | 0.00 | 15 | 1018.5 |
| 20260508205524 | 77 | 180 | 6.0 | 13.0 | 0.00 | 0.00 | 0.00 | 15 | 1018.6 |
| 20260508205024 | 77 | 171 | 3.0 | 10.0 | 0.00 | 0.00 | 0.00 | 15 | 1018.7 |
| 20260508204541 | 76 | 192 | 4.0 | 9.0 | 0.00 | 0.00 | 0.00 | 16 | 1018.8 |
| 20260508204022 | 76 | 80 | 3.0 | 12.0 | 0.00 | 0.00 | 0.00 | 16 | 1018.9 |
| 20260508203524 | 76 | 93 | 5.0 | 12.0 | 0.00 | 0.00 | 0.00 | 16 | 1019.0 |
| 20260508203049 | 75 | 195 | 5.0 | 13.0 | 0.00 | 0.00 | 0.00 | 16 | 1019.1 |
| 20260508202528 | 75 | 119 | 7.0 | 15.0 | 0.00 | 0.00 | 0.00 | 16 | 1019.2 |
| 20260508202024 | 76 | 117 | 6.0 | 15.0 | 0.00 | 0.00 | 0.00 | 15 | 1019.2 |
| 20260508201541 | 76 | 188 | 8.0 | 15.0 | 0.00 | 0.00 | 0.00 | 15 | 1019.3 |
| 20260508201022 | 77 | 265 | 2.0 | 13.0 | 0.00 | 0.00 | 0.00 | 15 | 1019.4 |
| 20260508200524 | 77 | 277 | 3.0 | 14.0 | 0.00 | 0.00 | 0.00 | 16 | 1019.5 |
| 20260508200041 | 76 | 250 | 6.0 | 14.0 | 0.00 | 0.00 | 0.00 | 16 | 1019.5 |
| 20260508195529 | 76 | 193 | 7.0 | 14.0 | 0.00 | 0.00 | 0.00 | 16 | 1019.5 |
| 20260508195026 | 76 | 215 | 5.0 | 16.0 | 0.00 | 0.00 | 0.00 | 16 | 1019.4 |
| 20260508194542 | 75 | 175 | 6.0 | 16.0 | 0.00 | 0.00 | 0.00 | 16 | 1019.5 |
| 20260508194025 | 75 | 239 | 4.0 | 12.0 | 0.00 | 0.00 | 0.00 | 17 | 1019.5 |
| 20260508193525 | 75 | 230 | 3.0 | 12.0 | 0.00 | 0.00 | 0.00 | 17 | 1019.6 |
| 20260508193039 | 74 | 220 | 5.0 | 12.0 | 0.00 | 0.00 | 0.00 | 17 | 1019.5 |
| 20260508192525 | 74 | 286 | 2.0 | 11.0 | 0.00 | 0.00 | 0.00 | 18 | 1019.6 |
| 20260508192025 | 73 | 201 | 3.0 | 16.0 | 0.00 | 0.00 | 0.00 | 18 | 1019.7 |
| 20260508191537 | 73 | 228 | 3.0 | 16.0 | 0.00 | 0.00 | 0.00 | 17 | 1019.7 |
| 20260508191025 | 73 | 155 | 9.0 | 16.0 | 0.00 | 0.00 | 0.00 | 17 | 1019.8 |
| 20260508190525 | 74 | 178 | 5.0 | 15.0 | 0.00 | 0.00 | 0.00 | 18 | 1019.8 |
| 20260508190042 | 74 | 227 | 5.0 | 15.0 | 0.00 | 0.00 | 0.00 | 18 | 1019.9 |
| 20260508185525 | 74 | 244 | 3.0 | 15.0 | 0.00 | 0.00 | 0.00 | 18 | 1019.9 |
| 20260508185024 | 74 | 311 | 5.0 | 15.0 | 0.00 | 0.00 | 0.00 | 18 | 1019.9 |
| 20260508184542 | 73 | 213 | 4.0 | 16.0 | 0.00 | 0.00 | 0.00 | 18 | 1020.0 |
| 20260508184025 | 73 | 174 | 6.0 | 18.0 | 0.00 | 0.00 | 0.00 | 18 | 1020.0 |
| 20260508183528 | 73 | 213 | 5.0 | 18.0 | 0.00 | 0.00 | 0.00 | 18 | 1020.0 |
| 20260508183039 | 73 | 261 | 5.0 | 13.0 | 0.00 | 0.00 | 0.00 | 17 | 1019.9 |
| 20260508182526 | 73 | 279 | 5.0 | 13.0 | 0.00 | 0.00 | 0.00 | 18 | 1020.1 |
| 20260508182029 | 73 | 231 | 4.0 | 14.0 | 0.00 | 0.00 | 0.00 | 18 | 1020.3 |
| 20260508181606 | 72 | 191 | 4.0 | 16.0 | 0.00 | 0.00 | 0.00 | 18 | 1020.3 |
| 20260508181025 | 72 | 182 | 4.0 | 17.0 | 0.00 | 0.00 | 0.00 | 19 | 1020.4 |
| 20260508180524 | 71 | 247 | 5.0 | 17.0 | 0.00 | 0.00 | 0.00 | 18 | 1020.5 |
| 20260508180050 | 71 | 257 | 6.0 | 14.0 | 0.00 | 0.00 | 0.00 | 19 | 1020.4 |
| 20260508175525 | 71 | 234 | 4.0 | 14.0 | 0.00 | 0.00 | 0.00 | 19 | 1020.6 |
| 20260508175023 | 70 | 281 | 3.0 | 15.0 | 0.00 | 0.00 | 0.00 | 20 | 1020.5 |
| 20260508174540 | 70 | 288 | 5.0 | 16.0 | 0.00 | 0.00 | 0.00 | 19 | 1020.6 |
| 20260508174028 | 70 | 219 | 6.0 | 16.0 | 0.00 | 0.00 | 0.00 | 19 | 1020.7 |
| 20260508173524 | 70 | 241 | 6.0 | 14.0 | 0.00 | 0.00 | 0.00 | 20 | 1020.8 |
| 20260508173046 | 70 | 242 | 5.0 | 14.0 | 0.00 | 0.00 | 0.00 | 20 | 1020.9 |
| 20260508172524 | 70 | 281 | 5.0 | 17.0 | 0.00 | 0.00 | 0.00 | 21 | 1020.9 |
| 20260508172028 | 70 | 255 | 5.0 | 17.0 | 0.00 | 0.00 | 0.00 | 20 | 1020.9 |
| 20260508171538 | 70 | 228 | 6.0 | 14.0 | 0.00 | 0.00 | 0.00 | 21 | 1020.8 |
| 20260508171023 | 69 | 294 | 6.0 | 16.0 | 0.00 | 0.00 | 0.00 | 21 | 1020.9 |
| 20260508170525 | 69 | 239 | 7.0 | 18.0 | 0.00 | 0.00 | 0.00 | 21 | 1020.9 |
| 20260508170043 | 69 | 193 | 8.0 | 18.0 | 0.00 | 0.00 | 0.00 | 21 | 1020.9 |
| 20260508165525 | 69 | 257 | 6.0 | 15.0 | 0.00 | 0.00 | 0.00 | 21 | 1020.9 |
| 20260508165028 | 69 | 236 | 3.0 | 13.0 | 0.00 | 0.00 | 0.00 | 22 | 1020.9 |
| 20260508164540 | 69 | 209 | 5.0 | 13.0 | 0.00 | 0.00 | 0.00 | 21 | 1021.0 |
| 20260508164024 | 69 | 237 | 6.0 | 13.0 | 0.00 | 0.00 | 0.00 | 21 | 1020.9 |
| 20260508163523 | 69 | 196 | 3.0 | 13.0 | 0.00 | 0.00 | 0.00 | 22 | 1021.0 |
| 20260508163040 | 69 | 179 | 6.0 | 13.0 | 0.00 | 0.00 | 0.00 | 21 | 1020.9 |
| 20260508162523 | 68 | 188 | 5.0 | 12.0 | 0.00 | 0.00 | 0.00 | 21 | 1021.1 |
| 20260508162027 | 68 | 278 | 4.0 | 11.0 | 0.00 | 0.00 | 0.00 | 22 | 1021.0 |
| 20260508161538 | 68 | 184 | 4.0 | 10.0 | 0.00 | 0.00 | 0.00 | 22 | 1021.1 |
| 20260508161023 | 67 | 196 | 4.0 | 12.0 | 0.00 | 0.00 | 0.00 | 22 | 1021.0 |
| 20260508160522 | 67 | 188 | 6.0 | 12.0 | 0.00 | 0.00 | 0.00 | 21 | 1021.0 |
| 20260508160040 | 67 | 194 | 4.0 | 10.0 | 0.00 | 0.00 | 0.00 | 21 | 1021.0 |
| 20260508155523 | 67 | 243 | 4.0 | 10.0 | 0.00 | 0.00 | 0.00 | 22 | 1021.1 |
| 20260508155024 | 67 | 240 | 3.0 | 8.0 | 0.00 | 0.00 | 0.00 | 22 | 1021.0 |
| 20260508154546 | 67 | 241 | 3.0 | 15.0 | 0.00 | 0.00 | 0.00 | 23 | 1021.0 |
| 20260508154022 | 66 | 192 | 6.0 | 15.0 | 0.00 | 0.00 | 0.00 | 22 | 1020.9 |
| 20260508153526 | 66 | 200 | 3.0 | 10.0 | 0.00 | 0.00 | 0.00 | 23 | 1020.9 |
| 20260508153043 | 66 | 183 | 4.0 | 10.0 | 0.00 | 0.00 | 0.00 | 23 | 1020.9 |
| 20260508152523 | 66 | 240 | 2.0 | 8.0 | 0.00 | 0.00 | 0.00 | 23 | 1020.9 |
| 20260508152026 | 65 | 194 | 2.0 | 8.0 | 0.00 | 0.00 | 0.00 | 24 | 1021.1 |
| 20260508151539 | 65 | 236 | 3.0 | 8.0 | 0.00 | 0.00 | 0.00 | 24 | 1021.1 |
| 20260508151024 | 64 | 210 | 3.0 | 8.0 | 0.00 | 0.00 | 0.00 | 25 | 1021.1 |
| 20260508150525 | 64 | 236 | 2.0 | 8.0 | 0.00 | 0.00 | 0.00 | 25 | 1021.1 |
| 20260508150038 | 63 | 217 | 2.0 | 9.0 | 0.00 | 0.00 | 0.00 | 25 | 1021.2 |
| 20260508145523 | 63 | 190 | 3.0 | 9.0 | 0.00 | 0.00 | 0.00 | 25 | 1021.1 |
| 20260508145024 | 63 | 0 | 2.0 | 6.0 | 0.00 | 0.00 | 0.00 | 26 | 1021.1 |
| 20260508144537 | 62 | 219 | 1.0 | 8.0 | 0.00 | 0.00 | 0.00 | 27 | 1021.1 |
| 20260508144022 | 61 | 194 | 2.0 | 8.0 | 0.00 | 0.00 | 0.00 | 27 | 1021.1 |
| 20260508143521 | 61 | 0 | 1.0 | 7.0 | 0.00 | 0.00 | 0.00 | 27 | 1021.1 |
| 20260508143037 | 60 | 297 | 2.0 | 9.0 | 0.00 | 0.00 | 0.00 | 27 | 1021.0 |